Location: Irvillac
(48.3701°N, 4.2122°W)
Time: 18:39:04
(UTC+00:00)

Daily predictions for brighter satellites

Satellite Brightness Start Highest point End
(mag) Time Altitude Azimuth Time Altitude Azimuth Time Altitude Azimuth
Meteor 2-12 Rocket 4.5 18:30:46 10° S 18:36:45 67° E 18:42:50 10° NNE
USA 308 3.7 18:37:42 10° WNW 18:41:46 41° N 18:45:50 10° E
Cosmos 1666 3.4 18:38:42 10° SSE 18:42:02 31° E 18:45:24 10° NNE
Cosmos 1703 Rocket 3.7 18:38:32 10° N 18:42:50 51° ENE 18:47:04 10° SSE
Cosmos 2322 4.1 18:39:22 10° S 18:44:45 44° ESE 18:50:10 10° NE
CZ-2C R/B 3.8 18:39:30 10° S 18:45:05 64° WSW 18:50:26 10° NNW
CSL-04 Rocket 4.0 18:40:52 10° SE 18:46:06 46° ENE 18:51:18 10° N
Cosmos 1844 Rocket 3.0 18:40:50 10° NNW 18:46:24 72° WSW 18:51:57 10° SSE
Okean-O 2.6 18:44:44 10° SSE 18:49:07 69° ENE 18:53:33 10° N
Cosmos 1933 Rocket 3.5 18:46:12 10° S 18:50:32 71° E 18:54:57 10° NNE
Cosmos 1777 Rocket 4.0 18:45:50 10° NNW 18:51:03 63° ENE 18:56:13 10° SE
H-2A R/B 2.2 18:47:44 10° SSE 18:53:12 87° ENE 18:58:39 10° NNW
CSL-04 Debris 4.3 18:48:22 10° SE 18:53:40 56° ENE 18:59:02 10° N
SJ-6B 4.3 18:53:23 10° ESE 18:56:17 19° ENE 18:59:10 10° NNE
Ariane Rocket 4.2 18:56:08 10° ESE 19:00:03 23° ENE 19:03:58 10° N
USA 186 3.0 18:59:36 14° E 19:00:28 16° ENE 19:02:09 10° NNE
Cosmos 1500 3.4 18:57:48 10° SSW 19:01:31 72° W 19:05:16 10° N
OBJECT-B 2.6 19:02:10 13° E 19:03:10 15° ENE 19:05:02 10° NNE
Meteor 1-11 Rocket 4.0 19:00:33 10° SSE 19:05:50 42° E 19:11:04 10° NNE
SJ-11-01 4.4 19:01:22 10° SSE 19:06:04 83° WSW 19:10:49 10° NNW
Okean 1-7 3.0 19:02:37 10° N 19:07:00 85° E 19:11:19 10° S
Meteor 1-14 Rocket 4.4 19:01:48 10° SSW 19:07:20 76° WNW 19:12:54 10° N
PSLV R/B 3.8 19:03:58 10° NNE 19:08:04 77° ESE 19:12:07 10° S
Cosmos 2360 Rocket 2.6 19:03:21 10° SW 19:08:58 67° WNW 19:14:40 10° NNE
YAOGAN 1 2.9 19:05:44 10° S 19:10:02 70° WSW 19:14:23 10° NNW
FALCON 9 DEB 2.9 19:08:19 10° WNW 19:11:30 74° NNE 19:13:45 18° ESE
Cosmos 1943 Rocket 4.1 19:09:39 10° N 19:12:27 14° NNE 19:15:13 10° ENE
SAR-Lupe-4 3.5 19:08:53 10° NNE 19:12:27 62° ESE 19:16:00 10° S
Meteor 1-13 Rocket 4.3 19:08:18 10° N 19:14:15 70° ENE 19:20:03 10° SSE
Cosmos 2341 Rocket 4.0 19:09:16 10° S 19:15:33 82° E 19:21:49 10° N
SJ 16-02 1.8 19:11:22 10° N 19:15:33 40° ENE 19:19:19 12° SE
Cosmos 2333 4.2 19:09:57 10° SSW 19:15:36 82° ESE 19:21:22 10° NNE
Cosmos 1727 Rocket 4.3 19:10:17 10° N 19:16:12 44° ENE 19:22:07 10° SE
Cosmos 2237 Rocket 3.3 19:12:24 10° SSE 19:16:34 21° E 19:20:44 10° NE
Cosmos 2278 Rocket 2.6 19:12:02 10° NNW 19:17:29 45° NE 19:22:11 14° ESE
DMSP B5D2-2 4.5 19:13:01 10° NNE 19:17:55 39° E 19:22:46 10° SSE
Cosmos 1544 4.3 19:15:20 10° SE 19:18:06 21° E 19:20:53 10° NE
FALCON 9 DEB 2.8 19:16:12 10° WNW 19:19:23 89° WSW 19:21:22 21° ESE
SL-4 R/B 2.7 19:16:40 10° WNW 19:20:01 39° SSW 19:22:57 12° SE
COSMO-SKYMED 1 4.4 19:16:10 10° N 19:20:08 35° WNW 19:24:05 10° SW
Okean 3 3.5 19:15:59 10° N 19:20:14 60° ENE 19:24:27 10° SSE
Cosmos 1536 3.1 19:16:36 10° SSE 19:20:21 42° E 19:24:08 10° NNE
DMSP B5D1-3 4.5 19:16:16 10° NNE 19:21:28 83° ESE 19:26:38 10° SSW
Meteor 1-5 Rocket 4.2 19:17:37 10° SSW 19:23:02 84° W 19:28:42 10° N
Cosmos 2242 Rocket 4.5 19:20:38 10° NNW 19:25:01 54° W 19:29:20 10° S
SeaSat 1 2.8 19:20:32 10° NE 19:25:12 41° ESE 19:29:51 10° S
Abrixas rocket 2.6 19:23:22 10° W 19:25:40 35° SSW 19:26:46 22° SSE
Cosmos 2218 Rocket 4.0 19:19:54 10° S 19:26:13 66° E 19:32:33 10° NNE
Cosmos 864 Rocket 4.4 19:24:04 10° S 19:30:10 66° E 19:36:21 10° NNE
MetOp-A 4.2 19:25:18 10° SSE 19:30:32 58° ENE 19:35:49 10° N
Resurs 01 Rocket 3.1 19:31:41 18° ENE 19:32:07 18° ENE 19:35:08 10° NNE
SME Rocket 4.3 19:25:39 10° NNE 19:32:23 40° E 19:37:01 10° SSE
SAR-Lupe-1 4.3 19:29:17 10° N 19:32:53 73° WNW 19:36:28 10° SSW
Gbstr 26 Del rocket 3.4 19:30:22 10° WNW 19:34:55 73° NNE 19:38:19 23° E
Cosmos 1959 Rocket 4.4 19:29:17 10° S 19:35:21 74° E 19:41:30 10° NNE
Helios 1A Rocket 3.4 19:31:50 10° S 19:35:50 62° WSW 19:39:50 10° NNW
Cosmos 2333 Rocket 2.2 19:30:51 10° SSW 19:36:33 87° WNW 19:42:20 10° NNE
USA 234 4.0 19:33:09 18° E 19:36:46 29° SE 19:42:17 10° S
Lacrosse 4 Rocket 1.7 19:33:44 10° SW 19:38:10 77° NW 19:42:41 10° NNE
GP-B 3.7 19:35:01 10° S 19:39:23 59° W 19:43:48 10° N
ERBS 4.4 19:38:21 10° NW 19:40:44 18° N 19:42:16 14° NE
CZ-4B R/B 4.5 19:40:38 10° NNW 19:42:32 15° WNW 19:44:28 10° WSW
USA 238 DEB 3.9 19:36:30 10° S 19:42:40 46° ESE 19:49:07 10° NE
USA 238 3.9 19:36:37 10° S 19:42:47 45° ESE 19:49:13 10° NE
Cosmos 2322 Rocket 4.3 19:38:26 10° WSW 19:43:08 27° NW 19:47:52 10° NNE
ARGOS 4.1 19:40:01 10° S 19:45:17 51° W 19:50:36 10° NNW
CZ-4 R/B 3.8 19:42:18 10° SSW 19:45:29 24° W 19:48:44 10° NW
Cosmos 1869 Rocket 3.8 19:41:32 10° SSW 19:45:54 74° W 19:50:21 10° N
Resurs 1-3 4.2 19:45:27 30° ESE 19:46:40 36° ENE 19:50:42 10° N
Cosmos 1689 Rocket 3.9 19:44:58 10° N 19:47:36 32° WNW 19:50:14 10° SW
FALCON 9 DEB 3.4 19:44:54 10° WNW 19:48:00 52° SSW 19:48:55 36° SSE
ERS-2 3.2 19:45:12 10° N 19:48:44 46° WNW 19:52:14 10° SW
IRS-1A Rocket 4.3 19:46:16 15° SE 19:50:49 59° ENE 19:56:16 10° N
Cosmos 2219 Rocket 2.3 19:47:12 10° SSW 19:52:47 75° WNW 19:58:26 10° NNE
Cosmos 1378 3.3 19:49:43 10° NNW 19:53:27 73° W 19:57:08 10° S
CREW DRAGON DEMO-1 DEB 2.6 19:52:36 10° WSW 19:55:13 67° SSW 19:55:13 67° SSW
Cosmos 1238 Rocket 2.5 19:51:44 10° S 19:55:47 81° E 19:59:12 10° N
CZ-2C R/B 2.9 19:50:35 10° N 19:56:02 70° WNW 20:01:18 10° SSW
USA 305 2.9 19:53:12 10° WNW 19:57:30 73° NNE 19:58:46 43° E
FALCON 9 DEB 3.4 19:54:26 10° WNW 19:57:34 53° SSW 19:58:05 46° S
Cosmos 1980 3.8 19:55:34 10° S 20:00:56 48° ESE 20:06:21 10° NE
Cosmos 1733 Rocket 3.0 19:58:51 10° S 20:03:05 57° E 20:07:24 10° NNE
COSMOS 2428 3.0 20:02:12 10° SW 20:07:52 70° WNW 20:13:34 10° NNE
USA 307 2.8 20:07:00 10° WNW 20:11:18 82° NNE 20:12:00 61° ESE
NOSS 3-2 (A) 3.2 20:05:43 10° SSW 20:11:20 77° SE 20:17:53 10° NE
USA 306 2.8 20:08:14 10° WNW 20:12:33 86° NNE 20:13:13 63° ESE
ATLAS CENTAUR R/B 3.9 20:11:56 10° WNW 20:14:06 15° NNW 20:16:19 10° N
Cosmos 1743 2.6 20:11:50 10° S 20:15:42 89° E 20:19:38 10° N
Cosmos 2369 Rocket 3.7 20:13:31 10° N 20:17:31 19° NE 20:18:00 19° NE
Cosmos 1898 Rocket 3.4 20:12:52 10° NNW 20:18:06 70° ENE 20:19:30 48° SE
NOSS 0 Rocket 3.8 20:15:03 10° SSW 20:21:12 80° ESE 20:27:23 10° NNE
USA 308 2.7 20:17:49 10° WNW 20:22:06 88° SW 20:22:24 77° SE
CENTAUR R/B 2.4 20:16:57 10° SSW 20:22:46 64° ESE 20:29:44 10° NE
SJ-6B 3.8 20:28:21 22° SSW 20:30:38 46° W 20:34:31 10° NNW
ASTEX 1 3.9 20:25:52 10° N 20:30:41 60° W 20:35:29 10° SSW
USA 186 4.0 20:31:11 18° W 20:31:11 18° W 20:33:06 10° NW
Cosmos 1674 Rocket 3.4 20:27:52 10° N 20:32:12 87° W 20:32:24 81° SSW
Landsat 7 4.5 20:34:35 41° NE 20:34:35 41° NE 20:38:15 10° N
OBJECT-B 2.2 20:35:13 37° W 20:35:13 37° W 20:38:09 10° NNW
ARIANE 5 R/B 4.3 20:39:17 22° NNE 20:39:17 22° NNE 20:41:23 10° N
Cosmos 990 Rocket 4.1 20:33:09 10° NNW 20:38:20 70° WSW 20:39:46 47° S
Ariane Rocket 3.4 20:35:45 25° S 20:38:37 60° WSW 20:43:41 10° NNW
ATLAS 5 CENTAUR R/B 4.2 20:36:12 10° WNW 20:39:05 14° NNW 20:40:39 11° N
Okean 2 4.5 20:38:21 10° N 20:40:55 36° N 20:40:55 36° N
Cosmos 1763 Rocket 3.4 20:37:36 10° SSW 20:42:55 81° ESE 20:48:15 10° NNE
Cosmos 2297 3.9 20:38:58 10° NNW 20:44:36 55° NE 20:44:36 55° NE
MetOp-B 4.2 20:45:40 60° NE 20:45:40 60° NE 20:50:38 10° N
Cosmos 1378 Rocket 3.7 20:42:11 10° NNW 20:46:26 73° WNW 20:46:26 73° WNW
NOSS 3-2 (C) 3.2 20:47:28 10° SW 20:53:08 87° SE 20:55:56 36° NE
SJ 16-02 3.5 20:50:21 10° NW 20:53:54 24° W 20:56:22 15° SW
Cosmos 468 Rocket 4.0 20:49:26 10° SSW 20:54:45 79° WNW 21:00:04 10° NNE
Cosmos 1943 Rocket 2.7 20:52:10 10° NNW 20:56:57 46° NNE 20:56:57 46° NNE
Cosmos 858 Rocket 4.5 20:53:58 10° NNW 20:59:01 77° W 20:59:01 77° W
Cosmos 2237 Rocket 2.4 20:54:22 10° SW 21:00:03 70° WNW 21:05:47 10° NNE
Cosmos 1535 Rocket 4.4 21:00:59 75° SE 21:01:19 78° E 21:07:42 10° NNE
Cosmos 1821 Rocket 4.4 20:55:16 10° SSW 21:01:23 60° WNW 21:07:29 10° N
Cosmos 2278 Rocket 3.5 20:56:22 10° NW 21:01:27 35° WSW 21:04:05 23° SSW
SeaSat 1 3.9 20:58:09 10° NNE 21:02:40 37° NW 21:07:10 10° WSW
Meteor 1-21 4.2 20:59:24 10° NNW 21:05:09 79° W 21:05:27 76° SW
SPOT 3 Rocket 3.7 21:05:03 69° WSW 21:05:09 69° WSW 21:10:24 10° NNW
Resurs 01 Rocket 2.6 21:09:15 45° NW 21:09:15 45° NW 21:12:34 10° NNW
USA 245 4.4 21:12:27 72° NNE 21:12:27 72° NNE 21:18:14 10° N
SPOT 1/Viking Rocket 4.2 21:14:33 47° N 21:14:33 47° N 21:18:13 10° NNW
Cosmos 1934 Rocket 3.9 21:14:32 74° SW 21:15:00 80° W 21:21:12 10° N
Lacrosse 4 Rocket 4.3 21:14:47 10° WNW 21:17:38 16° NW 21:20:30 10° N
USA 234 3.1 21:20:31 84° S 21:20:31 84° S 21:26:56 10° SW
Cosmos 1937 Rocket 4.2 21:15:28 10° NNW 21:20:01 49° W 21:20:01 49° W
Gbstr 26 Del rocket 4.5 21:17:02 10° WNW 21:20:51 42° WSW 21:20:51 42° WSW
Cosmos 2123 Rocket 4.3 21:18:50 10° NNW 21:24:57 60° W 21:25:45 55° SW
USA 238 DEB 4.3 21:27:08 10° WSW 21:33:34 51° NW 21:40:23 10° NE
USA 238 4.3 21:27:14 10° WSW 21:33:40 52° NW 21:40:29 10° NE
Terra 4.1 21:39:46 18° N 21:39:46 18° N 21:41:04 10° N
Cosmos 2369 Rocket 3.6 21:56:48 10° NNW 21:59:48 33° NNW 21:59:48 33° NNW
CENTAUR R/B 3.7 22:07:59 10° W 22:13:54 41° NNW 22:20:55 10° NE
USA 281 4.4 22:40:59 37° NNW 22:40:59 37° NNW 22:44:43 10° NNW
Cosmos 1943 Rocket 4.4 22:36:18 10° NW 22:38:29 21° WNW 22:38:29 21° WNW
